Regional Weather Roundup
Issued by NWS Northern Indiana

Home | Current Version | Previous Version | Graphics & Text | Print | Product List | Glossary On
Versions: 1 2 3 4 5 6 7 8 9 10 11 12 13 14 15 16 17 18 19 20 21 22 23 24 25 26 27 28 29 30 31 32 33 34 35 36 37 38 39 40 41 42 43 44 45 46 47 48 49 50
000
ASUS43 KIWX 201210
RWRIWX

KIWX WEATHER ROUNDUP
NATIONAL WEATHER SERVICE NORTHERN INDIANA
800 AM EDT WED SEP 20 2017

NOTE: "FAIR" INDICATES FEW OR NO CLOUDS BELOW 12,000 FEET WITH NO
SIGNIFICANT WEATHER AND/OR OBSTRUCTIONS TO VISIBILITY.

* THESE STATIONS ARE NOT UNDER NWS QUALITY CONTROL. THEY ALSO MAY NOT
  REPORT WEATHER SUCH AS PRECIPITATION OR FOG.

INZ001>027-201300-
NORTHERN INDIANA

CITY           SKY/WX    TMP DP  RH WIND       PRES   REMARKS
GARY*          PTCLDY    66  66 100 VRB5      29.94S FOG
VALPARAISO     FOG       59  59 100 E5        29.97R VSB 1/4
6HR MIN TEMP:  58; 6HR MAX TEMP:  63;

MICHIGAN CITY* FOG       59  59 100 CALM      29.97R VSB<1/4
LAPORTE*       FOG       58  58 100 CALM      29.98R VSB 1/4
6HR MIN TEMP:  58; 6HR MAX TEMP:  62;

KNOX*            N/A     55  55 100 CALM      29.97R
SOUTH BEND     FOG       62  62 100 E6        29.98S VSB<1/4
6HR MIN TEMP:  59; 6HR MAX TEMP:  64;

ELKHART*       FOG       64  64 100 E3        29.99R VSB<1/4
GOSHEN         FOG       63  61  93 SE3       29.99R VSB<1/4
6HR MIN TEMP:  63; 6HR MAX TEMP:  67;

MONTICELLO*    MOCLDY    63  62  95 E3        29.97R FOG
6HR MIN TEMP:  61; 6HR MAX TEMP:  64;

LOGANSPORT*    FOG       59  57  94 SE5       29.99R VSB<1/4
WARSAW*        LGT RAIN  61  61 100 CALM      30.00R VSB<1/4
AUBURN*        FOG       63  63 100 CALM      30.02R VSB<1/4
FORT WAYNE     FOG       62  61  96 CALM      30.01R VSB 1/4
6HR MIN TEMP:  61; 6HR MAX TEMP:  64;

HUNTINGTON*    PTCLDY    63  62  96 CALM      30.00R FOG
6HR MIN TEMP:  62; 6HR MAX TEMP:  66;

PERU/GRISSOM   CLEAR     64  64 100 S3        29.98R FOG
6HR MIN TEMP:  63; 6HR MAX TEMP:  66;


$$
INZ028>050-201300-
CENTRAL INDIANA

CITY           SKY/WX    TMP DP  RH WIND       PRES   REMARKS
LAFAYETTE      CLEAR     64  64 100 CALM      29.96R FOG
6HR MIN TEMP:  62; 6HR MAX TEMP:  65;

KOKOMO*        FOG       62  62 100 SE5       30.00S VSB 1/4
6HR MIN TEMP:  62; 6HR MAX TEMP:  66;

MUNCIE*        PTCLDY    69  65  86 S5        30.01R FOG
6HR MIN TEMP:  68; 6HR MAX TEMP:  69;

INDIANAPOLIS   PTCLDY    66  65  96 SE6       29.99R FOG
6HR MIN TEMP:  65; 6HR MAX TEMP:  68;


$$
MIZ043>046-050>051-056>058-064>065-071>073-077>080-201300-
SOUTHWEST LOWER MICHIGAN

CITY           SKY/WX    TMP DP  RH WIND       PRES   REMARKS
BATTLE CREEK   CLOUDY    67  66  97 S5        30.01R FOG
6HR MIN TEMP:  67; 6HR MAX TEMP:  68;

BENTON HARBOR  FOG       64  62  93 E6        29.97R VSB<1/4
6HR MIN TEMP:  61; 6HR MAX TEMP:  64;

COLDWATER*     CLOUDY    66  66 100 CALM      30.01R FOG
6HR MIN TEMP:  65; 6HR MAX TEMP:  67;

HILLSDALE*     CLOUDY    64  63  94 CALM      30.01S FOG
HOLLAND        CLOUDY    66  64  93 SE7       29.98R FOG
6HR MIN TEMP:  63; 6HR MAX TEMP:  67;

GRAND RAPIDS   CLOUDY    68  65  90 SW3       29.98S
6HR MIN TEMP:  66; 6HR MAX TEMP:  68; 6HR PCP: TRACE;

KALAMAZOO      CLOUDY    67  63  87 SW5       30.00R
6HR MIN TEMP:  67; 6HR MAX TEMP:  68;

STURGIS*       FOG       65  65 100 SE3       30.00R VSB 3/4
6HR MIN TEMP:  65; 6HR MAX TEMP:  67;

THREE RIVERS*  CLOUDY    67  66  98 S3        30.00R FOG
6HR MIN TEMP:  66; 6HR MAX TEMP:  68;


$$
OHZ001>008-015>018-024>025-201300-
NORTHWEST OHIO

CITY           SKY/WX    TMP DP  RH WIND       PRES   REMARKS
WAUSEON*       FOG       66  66 100 CALM      30.02R VSB 1/4
DEFIANCE       FOG       64  63  96 CALM      30.01R VSB 1/4
6HR MIN TEMP:  62; 6HR MAX TEMP:  66;

FINDLAY        PTCLDY    66  62  87 CALM      30.02R FOG
6HR MIN TEMP:  65; 6HR MAX TEMP:  67;

TOLEDO EXPRESS PTCLDY    64  50  60 W5        30.01R FOG
6HR MIN TEMP:  62; 6HR MAX TEMP:  66;

TOLEDO METCALF CLOUDY    66  64  93 CALM      30.03R FOG
6HR MIN TEMP:  64; 6HR MAX TEMP:  68; 6HR PCP: TRACE;

LIMA           CLOUDY    65  65 100 S5        30.03R FOG
6HR MIN TEMP:  63; 6HR MAX TEMP:  67;


$$
AND FOR LAKE MICHIGAN COASTAL AND OPEN LAKE BUOY OBSERVATIONS

STATION/POSITION TEMP    WIND        PRES    VSBY  WAVE
                 AIR SEA DIR/SP/G                  HT/PER
                 (F)     (DEG/KT/KT) (MB)    (MI)  (FT/S)
CALUMET HARBOR    67     150/  3/  4 1013.1R
MICHIGAN CITY     64     130/  8/  9   N/A
BURNS HARBOR      67     160/  7/  9 1014.6R
SAINT JOSEPH      63     120/  2/  4 1015.6
SOUTH LAKE BUOY   68 68  110/ 10/ 12 1013.9R         1
4 MI NW BRIDGMAN  64 69  160/  6/  8 1014.6          0
MICHIGAN CITY     66 68  150/  6/  6   N/A           0

$$
&&




USA.gov is the U.S. government's official web portal to all federal, state and local government web resources and services.